Location: Newark
(50.4348°N, 30.5552°E)
Time: 01:00:25
(UTC+00:00)

Tiros 1 despin weight - Pass Details

Date: 26 January 2020
Orbit: 594 x 642 km, 48.2° (Epoch: 20 February)

Event Time Altitude Azimuth Distance (km) Brightness Sun altitude
Rises 09:58:34 0° 239° (WSW) 2,861 ? 20.7°
Reaches altitude 10° 10:00:55 10° 234° (SW) 1,967 ? 20.7°
Maximum altitude 10:05:15 47° 161° (SSE) 829 ? 20.8°
Drops below altitude 10° 10:09:39 10° 88° (E) 2,002 ? 20.8°
Sets 10:12:03 0° 82° (E) 2,918 ? 20.8°
